Regional Weather Roundup
Issued by NWS

Home | Current Version | Previous Version | Graphics & Text | Print | Product List | Glossary On
Versions: 1 2 3 4 5 6 7 8 9 10 11 12 13 14 15 16 17 18 19 20 21 22 23 24 25 26 27 28 29 30 31 32 33 34 35 36 37 38 39 40 41 42 43 44 45 46 47 48 49 50
000
ASUS43 KBIS 250702
RWRND

NORTH DAKOTA REGIONAL WEATHER ROUNDUP
NATIONAL WEATHER SERVICE BISMARCK ND
200 AM CDT THU AUG 25 2016

NOTE: "FAIR" INDICATES FEW OR NO CLOUDS BELOW 12,000 FEET WITH NO
SIGNIFICANT WEATHER AND/OR OBSTRUCTIONS TO VISIBILITY.


NDZ001>003-009>011-017-250800-
NORTHWEST NORTH DAKOTA

CITY           SKY/WX    TMP DP  RH WIND       PRES   REMARKS
WILLISTON      LGT RAIN  54  48  80 NW20G25   30.16R
MINOT          CLOUDY    56  51  84 W17       30.03R
MINOT AFB      CLOUDY    55  51  87 NW16G23   30.02R
$$

NDZ018>021-031>035-040>046-250800-
SOUTHWEST NORTH DAKOTA

CITY           SKY/WX    TMP DP  RH WIND       PRES   REMARKS
BISMARCK       CLOUDY    58  48  69 W12       30.08S
DICKINSON      MOCLDY    51  46  83 W14       30.14S
GARRISON         N/A     54  50  86 NW18      30.07R
HETTINGER ARPT CLEAR     50  46  86 W12       30.19S
$$

NDZ004>008-012>016-024-026-027-054-250800-
NORTHEAST NORTH DAKOTA

CITY           SKY/WX    TMP DP  RH WIND       PRES   REMARKS
GRAND FORKS    CLEAR     58  52  80 SW10      29.90R
GRND FRKS AFB  CLEAR     58  52  81 W9        29.90S
DEVILS LAKE    CLOUDY    58  55  90 W15       29.94S
$$

NDZ022-023-025-028>030-036>039-047>053-250800-
SOUTHEAST NORTH DAKOTA

CITY           SKY/WX    TMP DP  RH WIND       PRES   REMARKS
FARGO          CLEAR     58  51  78 W12       29.95F
JAMESTOWN      CLEAR     56  51  84 W14       30.00S
$$





USA.gov is the U.S. government's official web portal to all federal, state and local government web resources and services.